COSMOS 2251 DEB, 34846

Orbit data source: Space-Track

COSMOS 2251 DEB, 34846 is space debris in LEO originally from a launch on Wed, 16 Jun 1993 UTC launched from the Plesetsk Missile And Space Complex (PKMTR). The debris from Iridium 33, an American commercial communications satellite, has been tracked extensively since its accidental collision with the defunct Russian satellite Cosmos 2251 in 2009. This event, occurring at high speed in low Earth orbit (LEO), generated thousands of pieces of space debris, significantly increasing the risk of further collisions. The Iridium 33 debris cloud has impacted space traffic management and orbital debris mitigation strategies, making it a subject of ongoing study in space situational awareness.

Loading next visibility...
Identifier
34846, 1993-036ABQ
Orbit
LEO
Country
Flag of CISCIS
Related business
Manufacturer
Unknown
Mission
Spacecraft
Bus & Motor
Unknown
Mass
Unknown
Launch date (UTC)
1993-06-16 (33 years ago)
Launch vehicle
Unknown
Launch site
Plesetsk Missile And Space Complex (PKMTR)
Object type
Payload
Rocket body
Debris
Shape & HBR
Unknown shape, 0.1 m
Radar Cross Section
Small (<0.1 m²)

Expand to show TLE details & history
Last TLE update: 8 hours ago

TLE from 8 hours ago
0 COSMOS 2251 DEB
1 34846U 93036ABQ 26121.41357617  .00002783  00000-0  75258-3 0  9992
2 34846  74.0321   0.3793 0024624  38.3650 321.9254 14.48067026894251
Epoch: 2026-05-01T09:55Z
TLE epoch observation values (Epoch: 2026-05-01T09:55:32.981Z)
Latitude
-0.00004°
Longitude
-7.85432°
Altitude
720.826 km
Speed
7.502 km/s
True Right ascension
00h 01m 31s
True Declination
0° 00' 00"
Sunlit
Object was in daylight at epoch
Visualization orbit readout
Latitude
Unknown
Longitude
Unknown
Altitude
Unknown
Speed
Unknown
Apparent Right ascension
Unknown
Apparent Declination
Unknown
Sunlit
N/A
Visualization observer readout
Local Sidereal Time
01:14:19
Azimuth
Unknown
Elevation
Unknown
Doppler factor
Unknown
Orbital elements
Apogee altitude
747.082 km
Perigee altitude
712.078 km
Semi-major axis
7,107.717 km
Eccentricity
0.00246
Inclination
74.0321°
RAAN
0.3793°
Arg. of periapsis
38.365°
True anomaly
321.75097°
Mean anomaly
321.9254°
Eccentric anomaly
321.83823°
Mean motion
3.622 °/min
Orbital period
99.39 mins
BSTAR
0.00075258
Loading maneuver chart data...
Computing Atmospheric mass density...

Documentation

Showing up to 5 results
|